Weather History for LIPQ - November, 2012

Change the Weather History Date:

Monday, November 19, 2012

  Actual Average Record
Temperature  
Mean Temperature 56 °F -  
Max Temperature 62 °F 49 °F 62 °F (2012)
Min Temperature 50 °F 35 °F 26 °F (2011)
Degree Days  
Heating Degree Days 9    
Growing Degree Days 6 (Base 50)    
Moisture  
Dew Point 47 °F    
Average Humidity 77    
Maximum Humidity 94    
Minimum Humidity 59    
Precipitation  
Precipitation 0.00 in 0.13 in - ()
Sea Level Pressure  
Sea Level Pressure 29.98 in    
Wind  
Wind Speed 3 mph ()    
Max Wind Speed 9 mph    
Max Gust Speed -    
Visibility 5.8 miles    
Events Rain    
Averages and records for this station are not official NWS values.
T = Trace of Precipitation, MM = Missing Value Source: Averaged Metar Reports

Daily Weather History Graph

Daily Weather History Graph

Search for Another Location

Airport or City:

Trip Planner

Search our weather history database for the weather conditions in past years. The results will help you decide how hot, cold, wet, or windy it might be!

Date:

Astronomy

Nov. 19, 2012 Rise Set
Actual Time 7:11 AM CET 4:30 PM CET
Civil Twilight 6:39 AM CET 5:03 PM CET
Nautical Twilight 6:02 AM CET 5:39 PM CET
Astronomical Twilight 5:27 AM CET 6:15 PM CET
Moon 11:58 AM CET (11/19) 10:46 PM CET (11/19)
Length of Visible Light 10h 24m
Length of Day
9h 18m
Waxing Crescent, 38% of the Moon is Illuminated
Nov 19
Waxing Crescent
Nov 20
First Quarter
Nov 28
Full
Dec 6
Last Quarter
Dec 13
New

Hourly Weather History & Observations

Time (CET) Temp. Dew Point Humidity Pressure Visibility Wind Dir Wind Speed Gust Speed Precip Events Conditions
12:20 AM 50.0 °F 46.4 °F 87% 29.98 in 4.3 mi Variable 1.2 mph - N/A Rain Light Rain
12:50 AM 50.0 °F 48.2 °F 94% 29.98 in 3.1 mi Variable 1.2 mph - N/A Rain Light Rain
1:20 AM 50.0 °F 48.2 °F 94% 29.98 in 3.7 mi Variable 3.5 mph - N/A Rain Light Rain
1:50 AM 50.0 °F 48.2 °F 94% 29.98 in 3.7 mi Variable 2.3 mph - N/A Rain Light Rain
2:20 AM 50.0 °F 48.2 °F 94% 29.98 in 6.2 mi Variable 3.5 mph - N/A   Mostly Cloudy
2:50 AM 50.0 °F 48.2 °F 94% 29.98 in 3.7 mi Variable 3.5 mph - N/A Rain Light Rain
3:20 AM 51.8 °F 48.2 °F 88% 29.95 in 3.7 mi Variable 1.2 mph - N/A Rain Light Rain
3:50 AM 51.8 °F 50.0 °F 94% 29.95 in 3.7 mi Variable 3.5 mph - N/A Rain Light Rain
4:20 AM 51.8 °F 50.0 °F 94% 29.95 in 6.2 mi North 4.6 mph - N/A   Mostly Cloudy
5:20 AM 53.6 °F 50.0 °F 88% 29.95 in 6.2 mi East 9.2 mph - N/A   Mostly Cloudy
5:50 AM 53.6 °F 50.0 °F 88% 29.95 in 6.2 mi East 8.1 mph - N/A Rain Light Rain
6:20 AM 53.6 °F 50.0 °F 88% 29.95 in 6.2 mi East 4.6 mph - N/A   Mostly Cloudy
6:50 AM 53.6 °F 50.0 °F 88% 29.98 in 4.3 mi Variable 2.3 mph - N/A Rain Light Rain
7:20 AM 51.8 °F 48.2 °F 88% 29.98 in 5.0 mi Variable 1.2 mph - N/A Rain Light Rain
7:50 AM 51.8 °F 50.0 °F 94% 29.98 in 6.2 mi NNE 4.6 mph - N/A   Mostly Cloudy
8:20 AM 53.6 °F 50.0 °F 88% 29.98 in 6.2 mi Variable 3.5 mph - N/A   Mostly Cloudy
8:50 AM 53.6 °F 51.8 °F 94% 29.98 in 6.2 mi North 4.6 mph - N/A   Mostly Cloudy
9:20 AM 55.4 °F 51.8 °F 88% 29.98 in 6.2 mi Variable 1.2 mph - N/A   Mostly Cloudy
9:50 AM 55.4 °F 51.8 °F 88% 29.98 in 6.2 mi Variable 3.5 mph - N/A   Mostly Cloudy
10:20 AM 57.2 °F 50.0 °F 77% 29.98 in 6.2 mi Variable 1.2 mph - N/A   Mostly Cloudy
10:50 AM 59.0 °F 50.0 °F 72% 29.98 in 6.2 mi Variable 2.3 mph - N/A   Mostly Cloudy
11:20 AM 59.0 °F 51.8 °F 77% 29.98 in 6.2 mi Variable 2.3 mph - N/A   Mostly Cloudy
11:50 AM 60.8 °F 50.0 °F 68% 29.98 in 6.2 mi Variable 2.3 mph - N/A   Mostly Cloudy
12:20 PM 62.6 °F 51.8 °F 68% 29.98 in 6.2 mi ESE 4.6 mph - N/A   Mostly Cloudy
12:50 PM 60.8 °F 48.2 °F 63% 29.98 in 6.2 mi NE 5.8 mph - N/A   Mostly Cloudy
1:20 PM 62.6 °F 48.2 °F 59% 29.98 in 6.2 mi Variable 2.3 mph - N/A   Mostly Cloudy
1:50 PM 60.8 °F 46.4 °F 59% 29.98 in 6.2 mi East 9.2 mph - N/A   Mostly Cloudy
2:20 PM 60.8 °F 48.2 °F 63% 29.98 in 6.2 mi ENE 5.8 mph - N/A   Scattered Clouds
2:50 PM 59.0 °F 46.4 °F 63% 29.98 in 6.2 mi Calm Calm - N/A   Scattered Clouds
3:20 PM 59.0 °F 48.2 °F 67% 29.98 in 6.2 mi Variable 1.2 mph - N/A   Scattered Clouds
3:50 PM 57.2 °F 44.6 °F 63% 29.98 in 6.2 mi Variable 1.2 mph - N/A   Scattered Clouds
4:20 PM 57.2 °F 44.6 °F 63% 29.98 in 6.2 mi Variable 1.2 mph - N/A   Partly Cloudy
4:50 PM 55.4 °F 42.8 °F 63% 29.98 in 6.2 mi Variable 2.3 mph - N/A   Partly Cloudy
5:20 PM 55.4 °F 44.6 °F 67% 29.98 in 6.2 mi Variable 3.5 mph - N/A   Partly Cloudy
5:50 PM 55.4 °F 44.6 °F 67% 29.98 in 6.2 mi NNE 4.6 mph - N/A   Partly Cloudy
6:20 PM 53.6 °F 42.8 °F 67% 30.01 in 6.2 mi Variable 3.5 mph - N/A   Partly Cloudy
6:50 PM 51.8 °F 42.8 °F 71% 30.01 in 6.2 mi Variable 3.5 mph - N/A   Partly Cloudy
7:20 PM 51.8 °F 42.8 °F 71% 29.98 in 6.2 mi North 5.8 mph - N/A   Partly Cloudy
7:50 PM 51.8 °F 42.8 °F 71% 29.98 in 6.2 mi Variable 1.2 mph - N/A   Partly Cloudy
8:20 PM 51.8 °F 44.6 °F 76% 29.98 in 6.2 mi Variable 2.3 mph - N/A   Partly Cloudy
8:50 PM 55.4 °F 44.6 °F 67% 29.98 in 6.2 mi NE 4.6 mph - N/A   Scattered Clouds
9:20 PM 53.6 °F 42.8 °F 67% 29.98 in 6.2 mi Variable 3.5 mph - N/A   Scattered Clouds
9:50 PM 53.6 °F 42.8 °F 67% 30.01 in 6.2 mi Variable 3.5 mph - N/A   Scattered Clouds
10:20 PM 53.6 °F 42.8 °F 67% 29.98 in 6.2 mi Variable 2.3 mph - N/A   Partly Cloudy
10:50 PM 51.8 °F 41.0 °F 67% 30.01 in 6.2 mi Variable 1.2 mph - N/A   Partly Cloudy
11:20 PM 51.8 °F 41.0 °F 67% 30.01 in 6.2 mi North 4.6 mph - N/A   Partly Cloudy
11:50 PM 51.8 °F 41.0 °F 67% 30.01 in - Variable 3.5 mph - N/A   Clear